Regional Weather Roundup
Issued by NWS

Home | Current Version | Previous Version | Graphics & Text | Print | Product List | Glossary On
Versions: 1 2 3 4 5 6 7 8 9 10 11 12 13 14 15 16 17 18 19 20 21 22 23 24 25 26 27
000
ASUS45 KCYS 222110
RWRWY

WYOMING REGIONAL WEATHER ROUNDUP
NATIONAL WEATHER SERVICE CHEYENNE WY
300 PM MDT TUE APR 22 2014

NOTE:  "FAIR" INDICATES FEW OR NO CLOUDS BELOW 12,000 FEET
WITH NO SIGNIFICANT WEATHER AND/OR OBSTRUCTIONS TO VISIBILITY.

WYZ001-222200-
YELLOWSTONE NATIONAL PARK

CITY           SKY/WX    TMP DP  RH WIND       PRES   REMARKS
LK YELLOWSTONE   N/A     51  29  42 VRB3      29.73F
W YELLOWSTONE  NOT AVBL

$$
WYZ002>013-054>058-071-098>099-222200-
NORTHERN WYOMING

CITY           SKY/WX    TMP DP  RH WIND       PRES   REMARKS
JACKSON        PTSUNNY   59  34  38 SW7       29.67F
CODY           PTSUNNY   68  32  26 SE16G25   29.61F
GREYBULL       MOSUNNY   75  29  18 SE15G23   29.57F
WORLAND        MOSUNNY   73  35  25 SE7       29.59F
SHERIDAN         N/A     59  36  41 S23G31      N/A
BUFFALO        PTSUNNY   69  32  25 SE10      29.68F
GILLETTE       CLOUDY    71  40  32 S15       29.66F
HULETT         MOCLDY    72  34  25 SW10G20   29.70
NEWCASTLE      FAIR      70  36  28 S12       29.71

$$
WYZ014>020-022>026-101>103-222200-
CENTRAL WYOMING

CITY           SKY/WX    TMP DP  RH WIND       PRES   REMARKS
BIG PINEY      CLOUDY    62  26  25 W22G30    29.75F
PINEDALE       CLOUDY    59  30  33 S13G20    29.77F
DUBOIS         FAIR      55  32  41 S9        29.73F
LANDER         CLOUDY    57  40  52 S25G47    29.69R
RIVERTON       CLOUDY    70  29  21 SW26G33   29.67F
CASPER         CLOUDY    71  36  27 S9        29.69F
DOUGLAS        CLOUDY    62  47  57 E12       29.74F

$$
WYZ021-027>030-104>119-222200-
SOUTHERN WYOMING

CITY           SKY/WX    TMP DP  RH WIND       PRES   REMARKS
EVANSTON       PTSUNNY   61  23  23 SW26G41   29.74F
KEMMERER       CLOUDY    61  21  21 SW26      29.76F
FORT BRIDGER   FAIR      68  20  16 SW24G33   29.77F
ROCK SPRINGS   CLOUDY    65  25  22 S26G35    29.76F
DIXON          FAIR      69  30  23 SW25G33   29.83F
RAWLINS        LGT RAIN  59  37  44 SW13G32   29.81F
SARATOGA       RAIN      55  36  47 S30G47    29.86S
LARAMIE        CLOUDY    61  33  35 SW23G30   29.89S
CHEYENNE       PTSUNNY   72  31  22 S16       29.83F
TORRINGTON     PTSUNNY   76  37  24 SE13      29.70F
PINE BLUFFS    FAIR      77  30  18 S10G23    29.80F

$$



USA.gov is the U.S. government's official web portal to all federal, state and local government web resources and services.